Location: Bill Sadowski Park
(25.6087°N, 80.3181°W)
Time: 06:18:30
(UTC-05:00)

Tiangong 2 - Visible Passes

Search period start: 13 December 2017 00:00
Search period end: 23 December 2017 00:00
Orbit: 386 x 390 km, 42.8° (Epoch: 13 December)

Date Brightness Start Highest point End Pass type
(mag) Time Alt. Az. Time Alt. Az. Time Alt. Az.
13 Dec 2.1 06:00:00 23° W 06:01:19 32° SW 06:04:13 10° SSE visible
14 Dec 3.3 05:04:42 25° SE 05:04:42 25° SE 05:06:11 10° SE visible
15 Dec 3.5 05:41:45 13° SSW 05:41:45 13° SSW 05:42:53 10° SSW visible
16 Dec 3.9 19:33:24 10° SW 19:34:11 16° SW 19:34:11 16° SW visible
17 Dec 2.6 18:35:39 10° S 18:38:12 22° SE 18:38:53 21° ESE visible
18 Dec 2.0 19:13:19 10° WSW 19:15:51 46° W 19:15:51 46° W visible
19 Dec 1.3 18:14:55 10° SW 18:18:02 58° SE 18:20:26 16° ENE visible
20 Dec 2.7 18:53:45 10° W 18:56:26 25° NNW 18:57:15 22° N visible
22 Dec 3.6 18:34:47 10° WNW 18:36:31 14° NNW 18:38:16 10° N visible
